Simultaneous Nadir Overpasses (SNOs) Predictions

Prediction of SNOs between GOES-17 and AQUA Satellite Orbit:

Table of predicted SNOs for the next 14.0 days since TLE Epoch: 12/14/2024
Index Date Time (GOES-17) GOES-17 Lat,Lon AQUA Lat,Lon Distance(km) Time Diff (sec)
1 12/14/2024 09:04:37 0.02,-104.71 -0.92,-100.39 492.12 80
2 12/14/2024 21:24:18 -0.02,-104.66 -0.15,-105.14 55.46 80
3 12/16/2024 21:08:13 -0.02,-104.66 0.89,-100.56 467.00 80
4 12/17/2024 09:27:46 0.02,-104.71 0.15,-105.28 64.87 80
5 12/19/2024 09:06:19 0.00,-104.72 -0.84,-100.69 457.93 80
6 12/19/2024 21:26:00 -0.00,-104.66 -0.19,-105.44 89.69 80
7 12/21/2024 21:09:52 0.00,-104.67 0.82,-100.85 434.70 80
8 12/22/2024 09:29:25 -0.00,-104.73 0.19,-105.57 95.94 80
9 12/24/2024 09:07:56 -0.01,-104.74 -0.83,-100.97 428.97 80
10 12/24/2024 21:27:35 0.00,-104.68 -0.23,-105.72 118.71 80
11 12/26/2024 21:11:24 -0.00,-104.69 0.74,-101.11 406.99 80
12 12/27/2024 09:30:57 0.01,-104.76 0.23,-105.84 122.87 80
